STARLINK-30487, 57924

Orbit data source: Space-Track

STARLINK-30487, 57924 is a payload satellite owned by SpaceX/Seattle (US) in LEO that was launched on Sun, 24 Sep 2023 UTC via an FALCON 9 launch vehicle from the Air Force Eastern Test Range (AFETR). Payload-class satellites include a variety of spacecraft equipped with specific instruments for various scientific and technological missions. These include communications satellites like Starlink; space stations such as the ISS; scientific satellites like the Hubble; Earth observation satellites from companies like Planet Labs, Umbra, and HawkEye 360; GPS; miniature CubeSats for education and research; and military/defense satellites.

Loading next visibility...
Identifier
57924, 2023-147M
Orbit
LEO
Country
Flag of USUS
Related business
Manufacturer
SpaceX/Seattle
Mission
Partially operational Commercial Communications
Bus & Motor
STARLINK V2M, Unknown motor
Mass
730 kg wet, ~700 kg dry
Launch date (UTC)
2023-09-24 (3 years ago)
Launch vehicle
FALCON 9
Launch site
Air Force Eastern Test Range (AFETR)
Object type
Payload
Rocket body
Debris
Shape & HBR
Box + 2 Pan, 17.7 m
Radar Cross Section
33.884 m², Large (>1 m²)

Expand to show TLE details & history
Last TLE update: 3 days ago

TLE from 3 days ago
0 STARLINK-30487
1 57924U 23147M   26170.93940978 -.00002321  00000-0 -74909-4 0  9992
2 57924  43.0011 111.3229 0000599 283.4993  76.5792 15.27551598152224
Epoch: 2026-06-19T22:32Z
TLE epoch observation values (Epoch: 2026-06-19T22:32:45.004Z)
Latitude
-0.00003°
Longitude
-135.02584°
Altitude
482.814 km
Speed
7.626 km/s
True Right ascension
07h 25m 17s
True Declination
0° 00' 00"
Sunlit
Object was in daylight at epoch
Visualization orbit readout
Latitude
Unknown
Longitude
Unknown
Altitude
Unknown
Speed
Unknown
Apparent Right ascension
Unknown
Apparent Declination
Unknown
Sunlit
N/A
Visualization observer readout
Local Sidereal Time
00:39:37
Azimuth
Unknown
Elevation
Unknown
Doppler factor
Unknown
Orbital elements
Apogee altitude
485.49 km
Perigee altitude
484.668 km
Semi-major axis
6,863.216 km
Eccentricity
0.00006
Inclination
43.0011°
RAAN
111.3229°
Arg. of periapsis
283.4993°
True anomaly
76.58588°
Mean anomaly
76.5792°
Eccentric anomaly
76.58254°
Mean motion
3.81726 °/min
Orbital period
94.31 mins
BSTAR
-0.000074909
Loading maneuver chart data...
Computing Atmospheric mass density...
Loading historical data...
Loading historical data...
Loading historical data...
Loading historical data...
Loading historical data...
Loading historical data...
Loading historical data...

Documentation

Showing up to 5 results
|